Powrót do katalogu

ONEWEB-0654

AktywnyŁącznośćPO
NORAD 55816·PAYLOAD·🇬🇧 United Kingdom

Wystrzelony Mar 9, 2023 z Cape Canaveral Space Force Station

Loading…

Następne Przeloty (najbliższe 24 godziny)

TLE

ŚwieżeSource: CelesTrak SupGP

Epoka: Sep 14, 2026, 19:45 UTC

1 55816C 23029W   26257.82344167  .00001652  00000+0  44617-2 0  2572
2 55816  87.8890 271.8289 0002184 100.3562 295.5210 13.14498325    11

Śledź ONEWEB-0654 w czasie rzeczywistym z AllMySat

Download on the App Store